SCP
3 3 3 3 4 5 6 6 5 5 5 5 5 5 5 5 5 4 4 3 2 2 2 2 3 3 4 4 3 3 3 2 2 3 2 1 1 1 1 2 2 2 2
3 3 3 3 4 5 5 5 4 4 5 5 6 6 5 5 5 5 5 4 3 3 3 3 3 3 4 5 5 4 3 2 2 2 2 1 1 1 1 2 2 2 2
3 3 3 3 3 4 4 4 4 4 4 5 6 6 5 5 5 6 6 5 4 3 3 3 3 3 4 5 6 5 3 2 1 1 1 1 1 1 1 1 1 1 1
3 3 3 3 3 3 3 3 3 4 4 5 5 5 5 5 6 6 6 5 5 4 4 3 3 4 4 4 5 4 3 2 1 1 1 1 1 1 1 1 1 1 1
3 3 3 3 3 2 2 2 3 3 4 5 5 6 5 5 5 5 5 5 4 4 4 3 4 4 4 4 4 3 2 2 1 1 1 1 1 1 1 1 1 1 1
3 4 4 4 3 3 2 3 3 3 4 5 5 6 5 5 5 4 4 3 3 3 3 3 3 4 4 4 4 3 3 2 2 1 1 1 1 1 1 1 1 1 1
4 4 4 4 4 3 3 3 3 4 4 4 5 5 5 5 4 4 3 2 2 2 2 2 2 2 3 3 4 3 3 3 2 1 1 1 1 1 1 1 1 1 1
4 4 4 4 4 3 3 3 4 4 4 4 4 4 4 4 4 3 2 2 2 2 2 2 1 1 2 2 2 3 3 3 2 1 1 1 1 1 1 1 1 1 1
4 4 4 4 4 4 4 4 4 5 4 4 4 4 4 3 3 3 2 2 2 2 2 1 1 1 1 1 2 2 3 3 3 2 2 1 1 1 1 1 1 1 1
4 4 4 4 4 4 4 4 5 5 6 5 5 4 4 3 3 3 3 3 2 2 2 2 1 1 1 2 2 2 2 3 3 3 2 2 1 1 1 1 1 1 1
3 4 4 4 4 4 4 4 5 6 6 7 6 5 4 4 4 3 3 3 2 2 2 2 2 2 2 2 2 2 2 2 3 3 3 2 2 2 1 1 1 2 2
4 4 5 5 5 4 5 5 6 6 6 7 7 7 6 5 4 3 3 3 3 3 2 3 3 3 2 2 2 2 2 2 2 2 3 3 3 2 2 2 2 2 2
4 5 6 6 6 5 6 6 7 7 7 7 7 8 8 7 5 4 3 3 3 3 3 3 4 4 4 3 2 2 2 2 2 2 2 2 3 3 3 3 3 3 3
4 5 6 7 6 6 7 8 9 10 10 9 9 9 9 9 7 5 4 4 4 3 3 4 4 5 5 4 3 3 2 2 1 1 2 2 2 3 3 3 3 3 3
3 4 6 7 7 7 8 9 9 10 11 11 12 12 11 9 8 6 5 5 5 5 4 4 4 5 5 4 4 3 3 2 2 2 2 2 3 2 2 2 2 3 3
4 4 6 6 7 8 8 8 8 8 9 10 11 12 11 10 9 8 8 8 7 6 5 4 4 4 4 4 4 4 3 3 3 4 4 4 4 3 2 2 1 2 2
4 4 5 6 7 8 8 7 6 6 6 7 7 8 9 10 10 10 11 10 9 8 6 5 4 4 3 3 2 3 4 5 5 5 6 6 5 5 4 3 2 1 1
4 4 5 6 6 7 7 7 6 5 6 6 5 6 7 8 9 10 11 11 10 8 6 5 4 4 4 3 2 2 3 5 5 5 5 6 6 5 4 3 3 2 2
4 4 5 6 7 7 7 6 6 6 6 5 5 5 5 6 7 7 8 9 9 7 6 4 4 4 4 3 1 1 3 4 4 4 4 5 5 4 3 3 3 3 3
4 4 5 6 7 7 6 5 5 7 7 7 5 5 5 6 6 6 7 8 7 6 6 5 4 4 4 2 1 1 2 3 3 3 3 3 2 2 1 1 2 2 2
3 4 4 5 6 6 6 5 5 7 8 8 6 5 5 5 7 8 9 9 7 6 6 6 5 4 4 2 1 1 1 2 2 3 3 2 1 0 0 1 1 1 1
3 3 4 4 5 5 6 5 5 6 7 6 5 6 6 6 8 10 11 11 8 5 5 6 5 5 5 3 2 0 1 2 3 3 3 2 1 0 0 0 0 0 0
3 4 4 4 4 4 6 6 6 6 6 5 5 6 7 8 9 11 12 11 7 5 4 4 5 5 6 5 2 1 0 1 2 3 2 1 0 0 0 0 0 0 0
4 4 5 5 4 4 5 7 7 7 6 5 5 6 6 7 9 11 12 10 7 4 4 4 4 5 6 5 3 1 1 1 1 2 1 1 0 0 1 1 1 1 1
5 5 6 5 5 5 5 7 7 7 7 7 6 6 6 7 9 11 11 9 6 4 4 4 4 5 5 4 2 1 1 1 1 1 1 1 1 1 1 1 1 2 2
5 6 6 6 5 5 6 7 7 7 8 8 7 6 5 6 8 11 11 8 5 4 4 3 4 5 4 2 1 1 1 1 1 1 1 1 1 1 1 2 2 2 2
Wind_Speed
9 9 9 9 9 8 8 8 7 7 6 5 5 5 4 3 3 3 3 3 2 2 2 1 2 1 1 1 2 2 3 2 1 1 2 2 1 0 0 0 0 1 1
9 9 10 9 9 8 8 8 8 7 7 5 4 3 3 3 3 2 3 3 3 3 2 2 2 2 2 2 2 2 1 2 1 1 1 2 3 2 1 1 1 0 1
9 10 10 9 9 8 8 7 7 7 7 5 4 4 3 3 3 3 3 3 4 4 3 2 2 2 2 2 2 2 2 1 1 1 2 1 0 1 3 1 1 0 0
9 10 10 9 9 9 8 8 7 7 7 6 5 5 3 3 3 3 3 3 4 4 3 3 3 2 2 2 3 2 2 2 2 1 1 2 2 2 1 2 2 2 1
9 10 10 10 9 9 8 7 7 7 7 6 6 5 4 3 2 2 3 3 4 4 4 4 3 3 2 2 2 2 2 2 2 1 1 1 2 3 3 1 1 1 1
9 9 9 9 9 9 8 8 8 7 7 7 7 6 5 4 3 3 3 3 3 3 4 3 3 3 2 3 3 3 3 2 2 2 2 2 2 2 2 2 2 1 1
8 9 9 9 9 9 8 8 8 8 8 8 7 7 7 6 5 4 4 3 3 3 4 4 3 3 2 3 3 3 3 3 3 3 2 2 2 2 2 3 2 2 2
6 7 9 9 9 9 8 8 9 8 8 8 7 7 7 5 5 5 3 4 3 3 3 4 4 3 3 3 3 3 3 3 3 3 3 3 2 2 3 3 3 3 3
6 6 7 8 9 9 8 8 8 8 8 8 7 7 7 5 5 4 4 3 3 3 4 4 4 3 3 3 4 3 3 3 3 3 3 3 2 3 3 3 4 4 3
5 5 5 6 7 8 8 8 8 8 8 8 7 6 7 6 5 4 4 4 4 3 4 4 4 4 4 4 4 3 3 3 2 2 2 2 2 2 2 3 4 4 4
4 5 4 5 6 7 7 8 8 8 8 7 7 6 6 6 5 5 5 4 4 4 5 4 4 4 3 3 3 4 3 3 3 3 3 3 2 2 2 2 3 3 3
3 4 4 5 5 6 6 7 7 8 8 7 7 6 5 5 5 5 4 4 4 4 4 4 4 4 4 4 4 4 4 4 4 3 3 3 2 2 3 2 3 3 3
3 4 4 4 5 5 5 6 7 7 7 7 7 7 7 6 6 5 5 4 4 4 4 4 4 4 4 4 5 4 4 5 4 4 4 3 2 3 2 3 3 3 3
3 3 4 4 4 5 5 5 6 6 7 7 7 6 6 6 5 5 5 4 4 4 4 4 4 4 4 4 4 4 4 5 4 4 4 4 4 3 3 3 4 3 4
3 4 4 4 4 5 5 5 5 6 6 6 6 6 5 5 5 5 5 4 4 4 4 4 4 4 4 3 4 4 5 5 5 4 4 4 3 3 3 4 3 4 4
4 4 4 4 4 4 5 5 5 5 5 5 5 5 5 5 5 5 4 4 4 4 4 4 4 4 2 1 2 5 4 5 4 4 4 4 5 4 4 5 5 5 5
4 4 4 4 4 4 4 5 5 5 5 5 4 4 4 4 4 4 4 4 4 4 4 4 4 3 1 1 2 4 5 5 4 4 4 4 3 4 5 5 7 6 6
3 3 3 4 4 3 4 4 4 5 4 4 4 3 3 3 3 3 4 3 3 3 3 3 3 3 2 3 3 5 7 5 4 4 4 4 3 3 4 4 4 5 5
3 3 3 4 4 4 4 4 4 4 4 4 4 3 3 3 3 3 3 3 2 2 3 3 3 3 3 3 4 5 5 4 4 4 4 4 4 1 3 5 5 5 4
3 3 3 4 4 4 4 4 4 4 4 4 3 3 3 3 3 3 3 2 2 3 3 2 3 3 3 3 4 6 5 4 4 4 4 3 3 1 3 5 5 6 5
3 3 3 3 3 3 4 4 4 4 3 3 3 3 3 3 3 3 3 3 3 2 2 2 3 3 2 3 4 4 4 4 4 3 3 2 3 3 4 6 5 5 6
4 4 3 3 3 3 3 4 4 3 3 3 3 3 3 3 3 3 3 3 3 4 4 3 3 2 2 2 3 4 4 5 3 3 2 0 2 3 5 5 4 5 6
3 3 3 3 3 3 3 3 3 3 4 4 4 3 3 3 3 3 4 4 4 4 4 4 3 3 2 3 5 6 6 5 4 3 2 1 3 5 5 5 5 5 5
3 3 4 3 3 3 3 3 3 3 4 4 4 4 4 4 3 3 3 3 3 4 4 4 4 3 2 2 2 3 5 6 5 3 2 4 6 6 4 3 4 4 3
3 3 3 3 3 4 3 3 3 4 4 4 4 4 4 4 3 3 2 3 2 2 3 3 3 3 2 0 2 2 2 2 1 2 3 3 3 3 3 3 3 3 3
3 3 3 3 3 3 4 4 4 4 4 5 4 4 3 4 4 4 3 1 1 0 1 2 3 2 1 1 1 0 1 2 3 4 4 3 3 3 3 3 2 2 2
Wind_Direction
178 176 177 176 175 172 174 178 179 177 183 181 188 186 188 192 189 182 174 185 183 180 199 196 157 214 168 159 161 160 151 145 144 168 149 151 160 158 239 219 227 169 173
174 176 179 180 179 176 175 178 181 178 185 182 188 193 201 197 189 186 170 187 180 183 194 188 186 186 166 165 164 172 168 136 167 262 235 187 161 155 152 160 168 183 178
183 181 183 185 181 180 183 182 181 179 183 178 180 181 183 193 185 186 180 187 186 181 194 188 197 193 203 174 180 184 197 191 178 281 300 294 13 125 138 135 135 164 166
190 186 185 184 185 183 181 181 180 179 178 181 185 183 189 197 194 188 173 178 189 187 184 188 186 199 206 181 206 183 214 234 217 185 262 321 336 293 180 162 153 162 200
191 188 189 186 186 182 179 176 176 176 177 184 184 194 202 200 190 181 170 183 174 184 184 184 187 193 201 196 203 181 227 239 254 239 208 197 216 254 261 230 197 183 181
187 185 185 181 180 179 178 176 174 176 177 183 189 197 200 194 187 184 181 190 177 176 174 178 188 204 202 199 205 210 217 250 264 266 246 231 232 227 238 231 241 242 202
183 184 184 181 180 181 182 179 178 177 179 183 191 196 199 192 190 195 191 203 191 177 174 186 191 203 207 211 214 214 232 231 235 252 256 252 254 258 251 242 251 263 250
187 190 189 184 182 182 184 183 181 180 181 186 191 195 197 197 192 193 199 194 205 187 171 184 192 203 208 211 210 222 221 223 233 247 260 257 250 246 248 252 254 258 255
185 196 192 184 184 185 185 185 179 177 182 187 188 189 190 194 193 188 199 195 197 189 178 184 189 197 206 214 212 218 228 224 234 236 227 246 238 234 242 249 253 262 266
181 188 189 188 186 184 184 183 180 179 180 182 186 181 184 189 190 195 190 195 194 190 184 186 189 195 199 205 211 208 208 222 233 253 265 263 258 247 244 249 254 258 264
184 184 184 184 183 184 183 181 181 180 178 180 180 179 179 181 185 194 194 192 192 188 192 190 193 198 198 198 206 218 207 219 229 238 234 246 269 268 265 253 253 257 259
185 179 174 170 171 176 178 175 178 179 175 172 167 166 167 172 183 188 191 189 191 197 195 195 196 200 198 201 211 218 215 221 228 235 236 239 229 237 266 272 270 268 263
173 171 163 161 165 170 175 172 174 172 168 168 168 164 170 173 178 182 183 185 189 196 198 199 202 205 205 205 211 216 222 227 230 234 235 234 228 236 247 259 263 261 254
162 162 156 154 160 164 168 169 167 164 165 168 169 168 171 170 171 177 183 186 187 191 197 205 212 212 213 212 213 215 228 232 231 234 237 235 231 233 240 239 248 260 264
166 160 154 149 153 158 163 164 161 161 162 168 170 168 171 171 173 179 185 188 192 195 200 207 213 218 217 219 228 223 226 233 233 234 237 235 245 275 269 268 258 253 255
172 166 157 152 156 164 163 158 160 160 163 167 169 166 173 175 180 182 183 185 190 197 204 213 215 224 235 122 272 267 243 236 235 236 236 229 219 222 236 267 279 278 261
176 169 165 162 157 166 163 163 163 162 166 164 162 164 173 174 179 184 181 184 191 201 210 214 218 223 214 165 223 259 259 250 248 246 246 252 234 228 237 232 233 248 256
177 173 168 160 157 161 161 161 162 164 163 161 162 169 175 170 171 181 182 183 192 201 207 216 219 221 203 180 214 246 243 246 242 242 243 251 255 255 269 258 252 249 244
180 179 171 157 153 154 158 159 161 161 165 168 172 175 178 170 172 180 182 183 190 204 213 223 227 227 208 187 211 236 236 233 238 240 241 247 246 266 281 259 260 261 254
169 163 160 157 152 155 162 165 169 170 176 183 185 182 181 178 181 185 187 187 191 203 214 215 231 234 228 184 209 233 237 232 235 229 224 220 246 232 256 258 261 261 263
149 154 165 163 152 155 167 174 176 183 187 187 184 183 187 192 193 191 195 197 202 203 224 229 234 234 242 191 192 225 249 244 242 242 238 213 166 210 241 260 265 273 279
155 164 170 164 154 157 167 177 185 191 186 185 186 188 197 209 191 193 202 205 209 209 216 219 231 228 216 212 179 193 238 286 263 262 267 235 162 215 244 252 266 268 269
162 170 174 167 162 171 178 183 188 188 184 184 191 195 198 203 200 201 206 206 209 226 226 223 227 227 218 181 175 192 214 241 257 276 339 310 225 230 232 226 235 248 254
179 180 175 176 181 189 193 194 184 184 187 191 196 194 198 199 193 216 222 227 221 227 234 232 235 234 222 229 202 201 202 205 218 239 205 204 223 236 248 227 220 240 261
182 180 183 186 189 194 193 190 180 181 194 199 203 203 202 198 196 204 229 240 246 275 267 256 249 247 235 64 32 307 279 290 303 269 240 238 233 236 236 237 240 250 252
187 185 189 187 188 191 190 189 189 191 198 203 207 211 210 204 205 196 191 88 295 133 235 277 286 297 6 107 117 227 270 275 278 258 244 243 246 252 258 259 252 252 268